When you browse on this site, cookies collect data to enhance your experience and personalize the content and advertising you see.
Visit our Privacy Policy to learn more. By continuing to use the site, you agree to this use of cookies and data.
  • In Hungary
  • List of Countries
  • For 7 days
  • Water Temperature
  • Weather Map
  • News
  • Weather Widgets
  • user-avatar
    Login

    Hourly Weather Bartnica

    Today, 6 December, Friday

    Time Temperature Precipitation Wind Pressure Humidity
    00:00 -7°C° 0 mm 4 mps 713 mmHg 80%
    01:00 -7°C° 0 mm 4 mps 713 mmHg 84%
    02:00 -7°C° 0 mm 4 mps 712 mmHg 83%
    03:00 -7°C° 0 mm 4 mps 712 mmHg 82%
    04:00 -7°C° 0 mm 4 mps 712 mmHg 81%
    05:00 -7°C° 0 mm 4 mps 712 mmHg 79%
    06:00 -7°C° 0 mm 5 mps 712 mmHg 78%
    07:00 -7°C° 0 mm 5 mps 712 mmHg 77%
    08:00 -6°C° 0 mm 5 mps 711 mmHg 71%
    09:00 -5°C° 0 mm 5 mps 711 mmHg 66%
    10:00 -4°C° 0 mm 6 mps 711 mmHg 61%
    11:00 -4°C° 0 mm 6 mps 711 mmHg 58%
    12:00 -3°C° 0 mm 6 mps 711 mmHg 55%
    13:00 -2°C° 0 mm 6 mps 711 mmHg 52%
    14:00 -3°C° 0 mm 6 mps 710 mmHg 56%
    15:00 -4°C° 0 mm 5 mps 709 mmHg 60%
    16:00 -5°C° 0 mm 5 mps 709 mmHg 63%
    17:00 -4°C° 0 mm 5 mps 709 mmHg 63%
    18:00 -4°C° 0 mm 5 mps 709 mmHg 63%
    19:00 -4°C° 0 mm 6 mps 709 mmHg 63%
    20:00 -4°C° 0 mm 6 mps 708 mmHg 63%
    21:00 -4°C° 0 mm 6 mps 708 mmHg 63%
    22:00 -4°C° 0 mm 6 mps 708 mmHg 63%
    23:00 -3°C° 0 mm 6 mps 708 mmHg 63%

    Tomorrow, 7 December, Saturday

    Time Temperature Precipitation Wind Pressure Humidity
    00:00 -3°C° 0 mm 7 mps 707 mmHg 63%
    01:00 -2°C° 0 mm 7 mps 707 mmHg 63%
    02:00 -2°C° 0 mm 7 mps 706 mmHg 65%
    03:00 -2°C° 0 mm 7 mps 706 mmHg 66%
    04:00 -2°C° 0 mm 7 mps 705 mmHg 67%
    05:00 -2°C° 0.2 mm 7 mps 705 mmHg 74%
    06:00 -2°C° 0.2 mm 7 mps 706 mmHg 81%
    07:00 -1°C° 0.2 mm 7 mps 706 mmHg 88%
    08:00 0°C° 0.1 mm 7 mps 706 mmHg 87%
    09:00 0°C° 0.1 mm 7 mps 706 mmHg 86%
    10:00 +1°C° 0.1 mm 8 mps 706 mmHg 85%
    11:00 +1°C° 0.2 mm 8 mps 706 mmHg 85%
    12:00 +2°C° 0.2 mm 7 mps 706 mmHg 86%
    13:00 +2°C° 0.2 mm 7 mps 707 mmHg 86%
    14:00 +2°C° 0.1 mm 6 mps 707 mmHg 87%
    15:00 +2°C° 0.1 mm 6 mps 707 mmHg 87%
    16:00 +1°C° 0.1 mm 5 mps 707 mmHg 88%
    17:00 +1°C° 0.1 mm 5 mps 707 mmHg 88%
    18:00 +1°C° 0.1 mm 5 mps 708 mmHg 88%
    19:00 +1°C° 0.1 mm 6 mps 708 mmHg 88%
    20:00 +1°C° 0 mm 5 mps 708 mmHg 88%
    21:00 +1°C° 0 mm 5 mps 708 mmHg 88%
    22:00 +1°C° 0 mm 5 mps 708 mmHg 88%
    23:00 +1°C° 0 mm 5 mps 708 mmHg 88%

    Day after tomorrow, 8 December, Sunday

    Time Temperature Precipitation Wind Pressure Humidity
    00:00 +1°C° 0 mm 5 mps 709 mmHg 88%
    01:00 +1°C° 0 mm 5 mps 709 mmHg 88%
    02:00 +1°C° 0 mm 5 mps 709 mmHg 88%
    03:00 0°C° 0 mm 4 mps 708 mmHg 89%
    04:00 0°C° 0 mm 4 mps 708 mmHg 89%
    05:00 0°C° 0 mm 4 mps 708 mmHg 90%
    06:00 0°C° 0 mm 4 mps 708 mmHg 90%
    07:00 0°C° 0 mm 4 mps 709 mmHg 90%
    08:00 0°C° 0 mm 5 mps 708 mmHg 88%
    09:00 +1°C° 0 mm 5 mps 708 mmHg 86%
    10:00 +1°C° 0 mm 6 mps 708 mmHg 84%
    11:00 +2°C° 0 mm 7 mps 707 mmHg 81%
    12:00 +2°C° 0 mm 7 mps 707 mmHg 79%
    13:00 +1°C° 0 mm 8 mps 706 mmHg 76%
    14:00 +1°C° 0 mm 8 mps 705 mmHg 77%
    15:00 +1°C° 0 mm 8 mps 705 mmHg 77%
    16:00 +2°C° 0 mm 8 mps 704 mmHg 77%
    17:00 +2°C° 0.2 mm 8 mps 704 mmHg 79%
    18:00 +2°C° 0.2 mm 8 mps 704 mmHg 82%
    19:00 +2°C° 0.2 mm 8 mps 703 mmHg 84%
    20:00 +2°C° 0.5 mm 8 mps 703 mmHg 84%
    21:00 +2°C° 0.5 mm 8 mps 703 mmHg 84%
    22:00 +4°C° 0.5 mm 7 mps 702 mmHg 84%
    23:00 +4°C° 0 mm 7 mps 702 mmHg 85%

    9 December, Monday

    Time Temperature Precipitation Wind Pressure Humidity
    00:00 +4°C° 0 mm 6 mps 702 mmHg 86%
    01:00 +4°C° 0 mm 6 mps 702 mmHg 87%
    02:00 +4°C° 0.6 mm 6 mps 701 mmHg 88%
    03:00 +4°C° 0.6 mm 6 mps 701 mmHg 88%
    04:00 +5°C° 0.6 mm 5 mps 701 mmHg 88%
    05:00 +3°C° 0.2 mm 5 mps 701 mmHg 85%
    06:00 +3°C° 0.2 mm 5 mps 701 mmHg 82%
    07:00 +2°C° 0.2 mm 5 mps 701 mmHg 79%
    08:00 +2°C° 0 mm 6 mps 701 mmHg 79%
    09:00 +2°C° 0 mm 6 mps 701 mmHg 79%
    10:00 +2°C° 0 mm 6 mps 701 mmHg 79%
    11:00 +2°C° 0 mm 6 mps 701 mmHg 75%
    12:00 +2°C° 0 mm 6 mps 700 mmHg 72%
    13:00 +3°C° 0 mm 6 mps 700 mmHg 68%
    14:00 +2°C° 0 mm 6 mps 699 mmHg 73%
    15:00 +1°C° 0 mm 6 mps 699 mmHg 77%
    16:00 +1°C° 0 mm 5 mps 699 mmHg 81%
    17:00 +1°C° 0 mm 5 mps 699 mmHg 82%
    18:00 -1°C° 0 mm 6 mps 699 mmHg 83%
    19:00 -1°C° 0 mm 6 mps 699 mmHg 84%
    20:00 -1°C° 0 mm 6 mps 698 mmHg 84%
    21:00 -1°C° 0 mm 6 mps 698 mmHg 84%
    22:00 -1°C° 0 mm 6 mps 698 mmHg 84%
    23:00 -1°C° 0.2 mm 6 mps 698 mmHg 86%

    10 December, Tuesday

    Time Temperature Precipitation Wind Pressure Humidity
    00:00 -1°C° 0.2 mm 7 mps 698 mmHg 88%
    01:00 -1°C° 0.2 mm 7 mps 698 mmHg 90%
    02:00 -1°C° 0.3 mm 7 mps 699 mmHg 91%
    03:00 -1°C° 0.3 mm 7 mps 699 mmHg 92%
    04:00 -1°C° 0.3 mm 7 mps 700 mmHg 93%
    05:00 -2°C° 0.1 mm 6 mps 700 mmHg 90%
    06:00 -3°C° 0.1 mm 6 mps 701 mmHg 87%
    07:00 -3°C° 0.1 mm 6 mps 701 mmHg 84%
    08:00 -2°C° 0 mm 5 mps 702 mmHg 85%
    09:00 -2°C° 0 mm 4 mps 703 mmHg 87%
    10:00 -2°C° 0 mm 4 mps 704 mmHg 88%
    11:00 -2°C° 0.3 mm 5 mps 705 mmHg 89%
    12:00 -1°C° 0.3 mm 5 mps 706 mmHg 90%
    13:00 -2°C° 0.3 mm 6 mps 706 mmHg 92%
    14:00 -3°C° 0.1 mm 6 mps 707 mmHg 90%
    15:00 -3°C° 0.1 mm 6 mps 708 mmHg 89%
    16:00 -4°C° 0.1 mm 6 mps 709 mmHg 87%
    17:00 -5°C° 0 mm 5 mps 710 mmHg 85%
    18:00 -4°C° 0 mm 4 mps 711 mmHg 82%
    19:00 -5°C° 0 mm 4 mps 712 mmHg 79%
    20:00 -5°C° 0 mm 3 mps 712 mmHg 81%
    21:00 -5°C° 0 mm 2 mps 712 mmHg 83%
    22:00 -5°C° 0 mm 2 mps 712 mmHg 84%
    23:00 -5°C° 0 mm 2 mps 712 mmHg 84%

    11 December, Wednesday

    Time Temperature Precipitation Wind Pressure Humidity
    00:00 -5°C° 0 mm 2 mps 711 mmHg 83%
    01:00 -5°C° 0 mm 2 mps 711 mmHg 82%
    02:00 -5°C° 0 mm 3 mps 710 mmHg 82%
    03:00 -5°C° 0 mm 4 mps 710 mmHg 82%
    04:00 -5°C° 0 mm 4 mps 709 mmHg 82%
    05:00 -5°C° 0 mm 5 mps 708 mmHg 78%
    06:00 -5°C° 0 mm 6 mps 708 mmHg 73%
    07:00 -4°C° 0 mm 7 mps 707 mmHg 69%
    08:00 -4°C° 0 mm 7 mps 707 mmHg 66%
    09:00 -4°C° 0 mm 8 mps 706 mmHg 63%
    10:00 -4°C° 0 mm 9 mps 706 mmHg 60%
    11:00 -4°C° 0.1 mm 9 mps 705 mmHg 66%
    12:00 -4°C° 0.1 mm 9 mps 705 mmHg 73%
    13:00 -4°C° 0.1 mm 9 mps 704 mmHg 79%
    14:00 -4°C° 0.6 mm 8 mps 704 mmHg 83%
    15:00 -4°C° 0.6 mm 8 mps 704 mmHg 86%
    16:00 -2°C° 0.6 mm 7 mps 704 mmHg 90%
    17:00 -2°C° 0 mm 6 mps 704 mmHg 90%
    18:00 -2°C° 0 mm 6 mps 704 mmHg 89%
    19:00 0°C° 0 mm 5 mps 704 mmHg 89%
    20:00 0°C° 0.2 mm 5 mps 705 mmHg 91%
    21:00 -1°C° 0.2 mm 4 mps 705 mmHg 93%
    22:00 -1°C° 0.2 mm 4 mps 705 mmHg 95%
    23:00 -1°C° 0 mm 4 mps 705 mmHg 94%
    Show more